Year,Month,Day,Hour,Minute,Value (Times are PST for temperature in C)
2009,04,21,00,00,9.30
2009,04,21,00,01,9.30
2009,04,21,00,02,9.30
2009,04,21,00,03,9.30
2009,04,21,00,04,9.30
2009,04,21,00,05,9.30
2009,04,21,00,06,9.30
2009,04,21,00,07,9.30
2009,04,21,00,08,9.30
2009,04,21,00,09,9.30
2009,04,21,00,10,9.30
2009,04,21,00,11,9.30
2009,04,21,00,12,9.30
2009,04,21,00,13,9.30
2009,04,21,00,14,9.30
2009,04,21,00,15,9.30
2009,04,21,00,16,9.30
2009,04,21,00,17,9.30
2009,04,21,00,18,9.30
2009,04,21,00,19,9.30
2009,04,21,00,20,9.30
2009,04,21,00,21,9.30
2009,04,21,00,22,9.30
2009,04,21,00,23,9.30
2009,04,21,00,24,9.30
2009,04,21,00,25,9.30
2009,04,21,00,26,9.30
2009,04,21,00,27,9.30
2009,04,21,00,28,9.30
2009,04,21,00,29,9.30
2009,04,21,00,30,9.30
2009,04,21,00,31,9.30
2009,04,21,00,32,9.30
2009,04,21,00,33,9.30
2009,04,21,00,34,9.30
2009,04,21,00,35,9.30
2009,04,21,00,36,9.30
2009,04,21,00,37,9.30
2009,04,21,00,38,9.30
2009,04,21,00,39,9.30
2009,04,21,00,40,9.30
2009,04,21,00,41,9.30
2009,04,21,00,42,9.30
2009,04,21,00,43,9.30
2009,04,21,00,44,9.30
2009,04,21,00,45,9.30
2009,04,21,00,46,9.30
2009,04,21,00,47,9.30
2009,04,21,00,48,9.30
2009,04,21,00,49,9.30
2009,04,21,00,50,9.30
2009,04,21,00,51,9.30
2009,04,21,00,52,9.30
2009,04,21,00,53,9.30
2009,04,21,00,54,9.30
2009,04,21,00,55,9.30
2009,04,21,00,56,9.30
2009,04,21,00,57,9.30
2009,04,21,00,58,9.30
2009,04,21,00,59,9.40
2009,04,21,01,00,9.40
2009,04,21,01,01,9.40
2009,04,21,01,02,9.40
2009,04,21,01,03,9.40
2009,04,21,01,04,9.40
2009,04,21,01,05,9.40
2009,04,21,01,06,9.40
2009,04,21,01,07,9.40
2009,04,21,01,08,9.40
2009,04,21,01,09,9.40
2009,04,21,01,10,9.40
2009,04,21,01,11,9.40
2009,04,21,01,12,9.40
2009,04,21,01,13,9.40
2009,04,21,01,14,9.40
2009,04,21,01,15,9.40
2009,04,21,01,16,9.40
2009,04,21,01,17,9.40
2009,04,21,01,18,9.40
2009,04,21,01,19,9.40
2009,04,21,01,20,9.40
2009,04,21,01,21,9.40
2009,04,21,01,22,9.40
2009,04,21,01,23,9.40
2009,04,21,01,24,9.50
2009,04,21,01,25,9.40
2009,04,21,01,26,9.40
2009,04,21,01,27,9.40
2009,04,21,01,28,9.40
2009,04,21,01,29,9.40
2009,04,21,01,30,9.40
2009,04,21,01,31,9.40
2009,04,21,01,32,9.40
2009,04,21,01,33,9.40
2009,04,21,01,34,9.40
2009,04,21,01,35,9.40
2009,04,21,01,36,9.40
2009,04,21,01,37,9.40
2009,04,21,01,38,9.40
2009,04,21,01,39,9.40
2009,04,21,01,40,9.40
2009,04,21,01,41,9.40
2009,04,21,01,42,9.40
2009,04,21,01,43,9.40
2009,04,21,01,44,9.40
2009,04,21,01,45,9.40
2009,04,21,01,46,9.40
2009,04,21,01,47,9.40
2009,04,21,01,48,9.40
2009,04,21,01,49,9.40
2009,04,21,01,50,9.40
2009,04,21,01,51,9.40
2009,04,21,01,52,9.40
2009,04,21,01,53,9.40
2009,04,21,01,54,9.40
2009,04,21,01,55,9.40
2009,04,21,01,56,9.40
2009,04,21,01,57,9.40
2009,04,21,01,58,9.40
2009,04,21,01,59,9.40
2009,04,21,02,00,9.40
2009,04,21,02,01,9.40
2009,04,21,02,02,9.40
2009,04,21,02,03,9.40
2009,04,21,02,04,9.40
2009,04,21,02,05,9.40
2009,04,21,02,06,9.40
2009,04,21,02,07,9.40
2009,04,21,02,08,9.40
2009,04,21,02,09,9.40
2009,04,21,02,10,9.40
2009,04,21,02,11,9.40
2009,04,21,02,12,9.40
2009,04,21,02,13,9.40
2009,04,21,02,14,9.40
2009,04,21,02,15,9.40
2009,04,21,02,16,9.30
2009,04,21,02,17,9.30
2009,04,21,02,18,9.30
2009,04,21,02,19,9.30
2009,04,21,02,20,9.30
2009,04,21,02,21,9.30
2009,04,21,02,22,9.30
2009,04,21,02,23,9.30
2009,04,21,02,24,9.30
2009,04,21,02,25,9.30
2009,04,21,02,26,9.30
2009,04,21,02,27,9.30
2009,04,21,02,28,9.30
2009,04,21,02,29,9.30
2009,04,21,02,30,9.30
2009,04,21,02,31,9.30
2009,04,21,02,32,9.30
2009,04,21,02,33,9.30
2009,04,21,02,34,9.30
2009,04,21,02,35,9.30
2009,04,21,02,36,9.30
2009,04,21,02,37,9.30
2009,04,21,02,38,9.30
2009,04,21,02,39,9.30
2009,04,21,02,40,9.20
2009,04,21,02,41,9.20
2009,04,21,02,42,9.20
2009,04,21,02,43,9.20
2009,04,21,02,44,9.20
2009,04,21,02,45,9.20
2009,04,21,02,46,9.20
2009,04,21,02,47,9.20
2009,04,21,02,48,9.20
2009,04,21,02,49,9.20
2009,04,21,02,50,9.20
2009,04,21,02,51,9.20
2009,04,21,02,52,9.20
2009,04,21,02,53,9.20
2009,04,21,02,54,9.20
2009,04,21,02,55,9.20
2009,04,21,02,56,9.20
2009,04,21,02,57,9.20
2009,04,21,02,58,9.20
2009,04,21,02,59,9.20
2009,04,21,03,00,9.20
2009,04,21,03,01,9.20
2009,04,21,03,02,9.20
2009,04,21,03,03,9.20
2009,04,21,08,32,11.60
2009,04,21,08,33,11.70
2009,04,21,08,34,11.80
2009,04,21,08,35,11.80
2009,04,21,08,36,11.80
2009,04,21,08,37,11.70
2009,04,21,08,38,11.70
2009,04,21,08,39,11.80
2009,04,21,08,40,11.80
2009,04,21,08,41,11.80
2009,04,21,08,42,11.80
2009,04,21,08,43,11.80
2009,04,21,08,44,11.80
2009,04,21,08,45,11.80
2009,04,21,08,46,11.70
2009,04,21,08,47,11.70
2009,04,21,08,48,11.60
2009,04,21,08,49,11.60
2009,04,21,08,50,11.60
2009,04,21,08,51,11.60
2009,04,21,08,52,11.50
2009,04,21,08,53,11.50
2009,04,21,08,54,11.50
2009,04,21,08,55,11.60
2009,04,21,08,56,11.60
2009,04,21,08,57,11.70
2009,04,21,08,58,11.70
2009,04,21,08,59,11.80
2009,04,21,09,00,11.80
2009,04,21,09,01,11.80
2009,04,21,09,02,11.80
2009,04,21,09,03,11.80
2009,04,21,09,04,11.80
2009,04,21,09,05,11.80
2009,04,21,09,06,11.70
2009,04,21,09,07,11.60
2009,04,21,09,08,11.60
2009,04,21,09,09,11.60
2009,04,21,09,10,11.60
2009,04,21,09,11,11.70
2009,04,21,09,12,11.70
2009,04,21,09,13,11.70
2009,04,21,09,14,11.80
2009,04,21,09,15,11.80
2009,04,21,09,16,11.80
2009,04,21,09,17,11.80
2009,04,21,09,18,11.80
2009,04,21,09,19,11.80
2009,04,21,09,20,11.80
2009,04,21,09,21,11.80
2009,04,21,09,22,11.80
2009,04,21,09,23,11.80
2009,04,21,09,24,11.80
2009,04,21,09,25,11.70
2009,04,21,09,26,11.70
2009,04,21,09,27,11.70
2009,04,21,09,28,11.70
2009,04,21,09,29,11.80
2009,04,21,09,30,11.80
2009,04,21,09,31,11.80
2009,04,21,09,32,11.80
2009,04,21,09,33,11.80
2009,04,21,09,34,11.90
2009,04,21,09,35,11.90
2009,04,21,09,36,12.00
2009,04,21,09,37,12.00
2009,04,21,09,38,12.00
2009,04,21,09,39,12.00
2009,04,21,09,40,11.90
2009,04,21,09,41,11.90
2009,04,21,09,42,11.90
2009,04,21,09,43,11.90
2009,04,21,09,44,11.90
2009,04,21,09,45,11.90
2009,04,21,09,46,11.90
2009,04,21,09,47,12.00
2009,04,21,09,48,12.00
2009,04,21,09,49,12.10
2009,04,21,09,50,12.10
2009,04,21,09,51,12.00
2009,04,21,09,52,12.00
2009,04,21,09,53,12.00
2009,04,21,09,54,11.90
2009,04,21,09,55,11.90
2009,04,21,09,56,11.90
2009,04,21,09,57,11.90
2009,04,21,09,58,11.80
2009,04,21,09,59,11.90
2009,04,21,10,00,11.90
2009,04,21,10,01,11.90
2009,04,21,10,02,12.00
2009,04,21,10,03,12.10
2009,04,21,10,04,12.20
2009,04,21,10,05,12.20
2009,04,21,10,06,12.20
2009,04,21,10,07,12.30
2009,04,21,10,08,12.30
2009,04,21,10,09,12.40
2009,04,21,10,10,12.40
2009,04,21,10,11,12.40
2009,04,21,10,12,12.40
2009,04,21,10,13,12.40
2009,04,21,10,14,12.50
2009,04,21,10,15,12.60
2009,04,21,10,16,12.70
2009,04,21,10,17,12.70
2009,04,21,10,18,12.70
2009,04,21,10,19,12.80
2009,04,21,10,20,12.80
2009,04,21,10,21,12.90
2009,04,21,10,22,13.00
2009,04,21,10,23,13.10
2009,04,21,10,24,13.20
2009,04,21,10,25,13.30
2009,04,21,10,26,13.30
2009,04,21,10,27,13.30
2009,04,21,10,28,13.20
2009,04,21,10,29,13.30
2009,04,21,10,30,13.30
2009,04,21,10,31,13.30
2009,04,21,10,32,13.30
2009,04,21,10,33,13.30
2009,04,21,10,34,13.40
2009,04,21,10,35,13.40
2009,04,21,10,36,13.40
2009,04,21,10,37,13.50
2009,04,21,10,38,13.60
2009,04,21,10,39,13.70
2009,04,21,10,40,13.90
2009,04,21,10,41,14.00
2009,04,21,10,42,14.10
2009,04,21,10,43,14.20
2009,04,21,10,44,14.30
2009,04,21,10,45,14.40
2009,04,21,10,46,14.50
2009,04,21,10,47,14.50
2009,04,21,10,48,14.50
2009,04,21,10,49,14.50
2009,04,21,10,50,14.40
2009,04,21,10,51,14.10
2009,04,21,10,52,13.80
2009,04,21,10,53,13.70
2009,04,21,10,54,13.70
2009,04,21,10,55,13.60
2009,04,21,10,56,13.50
2009,04,21,10,57,13.40
2009,04,21,10,58,13.40
2009,04,21,10,59,13.40
2009,04,21,11,00,13.40
2009,04,21,11,01,13.40
2009,04,21,11,02,13.50
2009,04,21,11,03,13.50
2009,04,21,11,04,13.60
2009,04,21,11,05,13.70
2009,04,21,11,06,13.70
2009,04,21,11,07,13.70
2009,04,21,11,08,13.50
2009,04,21,11,09,13.40
2009,04,21,11,10,13.30
2009,04,21,11,11,13.20
2009,04,21,11,12,13.10
2009,04,21,11,13,12.90
2009,04,21,11,14,12.80
2009,04,21,11,15,12.70
2009,04,21,11,16,12.60
2009,04,21,11,17,12.60
2009,04,21,11,18,12.40
2009,04,21,11,19,12.40
2009,04,21,11,20,12.40
2009,04,21,11,21,12.30
2009,04,21,11,22,12.30
2009,04,21,11,23,12.20
2009,04,21,11,24,12.20
2009,04,21,11,25,12.30
2009,04,21,11,26,12.40
2009,04,21,11,27,12.50
2009,04,21,11,28,12.60
2009,04,21,11,29,12.70
2009,04,21,11,30,12.80
2009,04,21,11,31,13.00
2009,04,21,11,32,13.10
2009,04,21,11,33,13.10
2009,04,21,11,34,13.20
2009,04,21,11,35,13.30
2009,04,21,11,36,13.30
2009,04,21,11,37,13.40
2009,04,21,11,38,13.40
2009,04,21,11,39,13.40
2009,04,21,11,40,13.40
2009,04,21,11,41,13.40
2009,04,21,11,42,13.40
2009,04,21,11,43,13.40
2009,04,21,11,44,13.40
2009,04,21,11,45,13.40
2009,04,21,11,46,13.50
2009,04,21,11,47,13.70
2009,04,21,11,48,13.80
2009,04,21,11,49,13.90
2009,04,21,11,50,13.90
2009,04,21,11,51,13.80
2009,04,21,11,52,13.70
2009,04,21,11,53,13.70
2009,04,21,11,54,13.80
2009,04,21,11,55,13.90
2009,04,21,11,56,13.90
2009,04,21,11,57,13.80
2009,04,21,11,58,13.90
2009,04,21,11,59,14.00
2009,04,21,12,00,14.10
2009,04,21,12,01,14.20
2009,04,21,12,02,14.30
2009,04,21,12,03,14.40
2009,04,21,12,04,14.50
2009,04,21,12,05,14.70
2009,04,21,12,06,14.80
2009,04,21,12,07,14.90
2009,04,21,12,08,14.90
2009,04,21,12,09,15.00
2009,04,21,12,10,15.00
2009,04,21,12,11,15.00
2009,04,21,12,12,15.00
2009,04,21,12,13,15.00
2009,04,21,12,14,15.00
2009,04,21,12,15,15.10
2009,04,21,12,16,15.10
2009,04,21,12,17,15.00
2009,04,21,12,18,15.00
2009,04,21,12,19,15.00
2009,04,21,12,20,15.00
2009,04,21,12,21,15.10
2009,04,21,12,22,15.20
2009,04,21,12,23,15.10
2009,04,21,12,24,15.00
2009,04,21,12,25,15.00
2009,04,21,12,26,15.00
2009,04,21,12,27,15.10
2009,04,21,12,28,15.30
2009,04,21,12,29,15.40
2009,04,21,12,30,15.60
2009,04,21,12,31,15.70
2009,04,21,12,32,15.80
2009,04,21,12,33,15.70
2009,04,21,12,34,15.70
2009,04,21,12,35,15.60
2009,04,21,12,36,15.60
2009,04,21,12,37,15.60
2009,04,21,12,38,15.60
2009,04,21,12,39,15.70
2009,04,21,12,40,15.90
2009,04,21,12,41,16.10
2009,04,21,12,42,16.20
2009,04,21,12,43,16.30
2009,04,21,12,44,16.50
2009,04,21,12,45,16.60
2009,04,21,12,46,16.80
2009,04,21,12,47,16.80
2009,04,21,12,48,16.90
2009,04,21,12,49,16.70
2009,04,21,12,50,16.50
2009,04,21,12,51,16.30
2009,04,21,12,52,16.20
2009,04,21,12,53,16.10
2009,04,21,12,54,16.00
2009,04,21,12,55,16.00
2009,04,21,12,56,15.90
2009,04,21,12,57,16.00
2009,04,21,12,58,16.00
2009,04,21,12,59,16.10
2009,04,21,13,00,16.10
2009,04,21,13,01,16.10
2009,04,21,13,02,16.10
2009,04,21,13,03,16.10
2009,04,21,13,04,16.10
2009,04,21,13,05,16.10
2009,04,21,13,06,16.10
2009,04,21,13,07,16.10
2009,04,21,13,08,16.10
2009,04,21,13,09,16.10
2009,04,21,13,10,16.20
2009,04,21,13,11,16.10
2009,04,21,13,12,16.00
2009,04,21,13,13,15.90
2009,04,21,13,14,15.90
2009,04,21,13,15,16.00
2009,04,21,13,16,16.10
2009,04,21,13,17,16.10
2009,04,21,13,18,16.10
2009,04,21,13,19,16.10
2009,04,21,13,20,16.10
2009,04,21,13,21,16.10
2009,04,21,13,22,16.10
2009,04,21,13,23,16.10
2009,04,21,13,24,16.00
2009,04,21,13,25,16.00
2009,04,21,13,26,16.00
2009,04,21,13,27,15.90
2009,04,21,13,28,15.80
2009,04,21,13,29,15.70
2009,04,21,13,30,15.60
2009,04,21,13,31,15.50
2009,04,21,13,32,15.40
2009,04,21,13,33,15.20
2009,04,21,13,34,15.10
2009,04,21,13,35,15.10
2009,04,21,13,36,15.20
2009,04,21,13,37,15.30
2009,04,21,13,38,15.40
2009,04,21,13,39,15.60
2009,04,21,13,40,15.70
2009,04,21,13,41,15.70
2009,04,21,13,42,15.70
2009,04,21,13,43,15.70
2009,04,21,13,44,15.80
2009,04,21,13,45,15.90
2009,04,21,13,46,16.00
2009,04,21,13,47,16.10
2009,04,21,13,48,16.20
2009,04,21,13,49,16.30
2009,04,21,13,50,16.40
2009,04,21,13,51,16.40
2009,04,21,13,52,16.40
2009,04,21,13,53,16.50
2009,04,21,13,54,16.50
2009,04,21,13,55,16.60
2009,04,21,13,56,16.70
2009,04,21,13,57,16.80
2009,04,21,13,58,16.80
2009,04,21,13,59,16.80
2009,04,21,14,00,16.80
2009,04,21,14,01,16.70
2009,04,21,14,02,16.50
2009,04,21,14,03,16.50
2009,04,21,14,04,16.50
2009,04,21,14,05,16.50
2009,04,21,14,06,16.40
2009,04,21,14,07,16.40
2009,04,21,14,08,16.50
2009,04,21,14,09,16.50
2009,04,21,14,10,16.60
2009,04,21,14,11,16.80
2009,04,21,14,12,16.80
2009,04,21,14,13,16.70
2009,04,21,14,14,16.70
2009,04,21,14,15,16.70
2009,04,21,14,16,16.70
2009,04,21,14,17,16.70
2009,04,21,14,18,16.70
2009,04,21,14,19,16.80
2009,04,21,14,20,16.80
2009,04,21,14,21,16.80
2009,04,21,14,22,16.80
2009,04,21,14,23,16.90
2009,04,21,14,24,16.90
2009,04,21,14,25,16.90
2009,04,21,14,26,16.90
2009,04,21,14,27,16.90
2009,04,21,14,28,16.90
2009,04,21,14,29,17.00
2009,04,21,14,30,17.20
2009,04,21,14,31,17.30
2009,04,21,14,32,17.40
2009,04,21,14,33,17.40
2009,04,21,14,34,17.40
2009,04,21,14,35,17.50
2009,04,21,14,36,17.40
2009,04,21,14,37,17.40
2009,04,21,14,38,17.40
2009,04,21,14,39,17.50
2009,04,21,14,40,17.50
2009,04,21,14,41,17.60
2009,04,21,14,42,17.50
2009,04,21,14,43,17.30
2009,04,21,14,44,17.10
2009,04,21,14,45,16.90
2009,04,21,14,46,16.80
2009,04,21,14,47,16.80
2009,04,21,14,48,16.80
2009,04,21,14,49,16.60
2009,04,21,14,50,16.60
2009,04,21,14,51,16.50
2009,04,21,14,52,16.50
2009,04,21,14,53,16.50
2009,04,21,14,54,16.50
2009,04,21,14,55,16.60
2009,04,21,14,56,16.60
2009,04,21,14,57,16.80
2009,04,21,14,58,17.00
2009,04,21,14,59,17.20
2009,04,21,15,00,17.30
2009,04,21,15,01,17.40
2009,04,21,15,02,17.50
2009,04,21,15,03,17.50
2009,04,21,15,04,17.60
2009,04,21,15,05,17.60
2009,04,21,15,06,17.70
2009,04,21,15,07,17.70
2009,04,21,15,08,17.50
2009,04,21,15,09,17.30
2009,04,21,15,10,17.10
2009,04,21,15,11,16.80
2009,04,21,15,12,16.60
2009,04,21,15,13,16.50
2009,04,21,15,14,16.30
2009,04,21,15,15,16.30
2009,04,21,15,16,16.20
2009,04,21,15,17,16.20
2009,04,21,15,18,16.10
2009,04,21,15,19,16.10
2009,04,21,15,20,16.10
2009,04,21,15,21,16.10
2009,04,21,15,22,16.00
2009,04,21,15,23,16.00
2009,04,21,15,24,16.00
2009,04,21,15,25,16.10
2009,04,21,15,26,16.10
2009,04,21,15,27,16.10
2009,04,21,15,28,16.10
2009,04,21,15,29,16.10
2009,04,21,15,30,16.10
2009,04,21,15,31,16.20
2009,04,21,15,32,16.20
2009,04,21,15,33,16.20
2009,04,21,15,34,16.20
2009,04,21,15,35,16.20
2009,04,21,15,36,16.10
2009,04,21,15,37,16.10
2009,04,21,15,38,16.10
2009,04,21,15,39,16.20
2009,04,21,15,40,16.20
2009,04,21,15,41,16.10
2009,04,21,15,42,16.10
2009,04,21,15,43,16.00
2009,04,21,15,44,15.90
2009,04,21,15,45,16.00
2009,04,21,15,46,16.10
2009,04,21,15,47,16.10
2009,04,21,15,48,16.20
2009,04,21,15,49,16.10
2009,04,21,15,50,16.10
2009,04,21,15,51,16.10
2009,04,21,15,52,16.10
2009,04,21,15,53,16.00
2009,04,21,15,54,16.00
2009,04,21,15,55,15.90
2009,04,21,15,56,15.90
2009,04,21,15,57,15.80
2009,04,21,15,58,15.80
2009,04,21,15,59,15.80
2009,04,21,16,00,15.80
2009,04,21,16,01,15.80
2009,04,21,16,02,15.70
2009,04,21,16,03,15.60
2009,04,21,16,04,15.60
2009,04,21,16,05,15.60
2009,04,21,16,06,15.60
2009,04,21,16,07,15.60
2009,04,21,16,08,15.70
2009,04,21,16,09,15.80
2009,04,21,16,10,15.90
2009,04,21,16,11,16.00
2009,04,21,16,12,16.10
2009,04,21,16,13,16.20
2009,04,21,16,14,16.40
2009,04,21,16,15,16.50
2009,04,21,16,16,16.60
2009,04,21,16,17,16.70
2009,04,21,16,18,16.70
2009,04,21,16,19,16.80
2009,04,21,16,20,16.90
2009,04,21,16,21,16.90
2009,04,21,16,22,16.90
2009,04,21,16,23,16.90
2009,04,21,16,24,16.80
2009,04,21,16,25,16.80
2009,04,21,16,26,16.80
2009,04,21,16,27,16.80
2009,04,21,16,28,16.80
2009,04,21,16,29,16.80
2009,04,21,16,30,16.70
2009,04,21,16,31,16.70
2009,04,21,16,32,16.70
2009,04,21,16,33,16.60
2009,04,21,16,34,16.60
2009,04,21,16,35,16.60
2009,04,21,16,36,16.60
2009,04,21,16,37,16.50
2009,04,21,16,38,16.40
2009,04,21,16,39,16.30
2009,04,21,16,40,16.30
2009,04,21,16,41,16.30
2009,04,21,16,42,16.30
2009,04,21,16,43,16.30
2009,04,21,16,44,16.40
2009,04,21,16,45,16.40
2009,04,21,16,46,16.40
2009,04,21,16,47,16.50
2009,04,21,16,48,16.50
2009,04,21,16,49,16.60
2009,04,21,16,50,16.60
2009,04,21,16,51,16.70
2009,04,21,16,52,16.80
2009,04,21,16,53,16.90
2009,04,21,16,54,16.90
2009,04,21,16,55,16.90
2009,04,21,16,56,16.90
2009,04,21,16,57,16.80
2009,04,21,16,58,16.90
2009,04,21,16,59,16.90
2009,04,21,17,00,17.00
2009,04,21,17,01,17.20
2009,04,21,17,02,17.20
2009,04,21,17,03,17.30
2009,04,21,17,04,17.20
2009,04,21,17,05,17.20
2009,04,21,17,06,17.20
2009,04,21,17,07,17.20
2009,04,21,17,08,17.10
2009,04,21,17,09,17.10
2009,04,21,17,10,17.10
2009,04,21,17,11,17.20
2009,04,21,17,12,17.20
2009,04,21,17,13,17.30
2009,04,21,17,14,17.30
2009,04,21,17,15,17.40
2009,04,21,17,16,17.40
2009,04,21,17,17,17.40
2009,04,21,17,18,17.40
2009,04,21,17,19,17.40
2009,04,21,17,20,17.30
2009,04,21,17,21,17.30
2009,04,21,17,22,17.20
2009,04,21,17,23,17.10
2009,04,21,17,24,17.00
2009,04,21,17,25,16.90
2009,04,21,17,26,16.80
2009,04,21,17,27,16.70
2009,04,21,17,28,16.70
2009,04,21,17,29,16.70
2009,04,21,17,30,16.60
2009,04,21,17,31,16.60
2009,04,21,17,32,16.50
2009,04,21,17,33,16.40
2009,04,21,17,34,16.30
2009,04,21,17,35,16.30
2009,04,21,17,36,16.20
2009,04,21,17,37,16.20
2009,04,21,17,38,16.10
2009,04,21,17,39,16.10
2009,04,21,17,40,16.10
2009,04,21,17,41,16.10
2009,04,21,17,42,16.10
2009,04,21,17,43,16.10
2009,04,21,17,44,16.10
2009,04,21,17,45,16.10
2009,04,21,17,46,16.10
2009,04,21,17,47,16.10
2009,04,21,17,48,16.00
2009,04,21,17,49,16.00
2009,04,21,17,50,15.90
2009,04,21,17,51,15.90
2009,04,21,17,52,15.90
2009,04,21,17,53,15.80
2009,04,21,17,54,15.80
2009,04,21,17,55,15.80
2009,04,21,17,56,15.80
2009,04,21,17,57,15.80
2009,04,21,17,58,15.80
2009,04,21,17,59,15.80
2009,04,21,18,00,15.70
2009,04,21,18,01,15.70
2009,04,21,18,02,15.70
2009,04,21,18,03,15.70
2009,04,21,18,04,15.70
2009,04,21,18,05,15.70
2009,04,21,18,06,15.70
2009,04,21,18,07,15.70
2009,04,21,18,08,15.70
2009,04,21,18,09,15.70
2009,04,21,18,10,15.70
2009,04,21,18,11,15.70
2009,04,21,18,12,15.70
2009,04,21,18,13,15.70
2009,04,21,18,14,15.70
2009,04,21,18,15,15.60
2009,04,21,18,16,15.60
2009,04,21,18,17,15.60
2009,04,21,18,18,15.50
2009,04,21,18,19,15.50
2009,04,21,18,20,15.50
2009,04,21,18,21,15.50
2009,04,21,18,22,15.50
2009,04,21,18,23,15.50
2009,04,21,18,24,15.50
2009,04,21,18,25,15.50
2009,04,21,18,26,15.50
2009,04,21,18,27,15.50
2009,04,21,18,28,15.50
2009,04,21,18,29,15.50
2009,04,21,18,30,15.50
2009,04,21,18,31,15.50
2009,04,21,18,32,15.50
2009,04,21,18,33,15.50
2009,04,21,18,34,15.50
2009,04,21,18,35,15.40
2009,04,21,18,36,15.40
2009,04,21,18,37,15.40
2009,04,21,18,38,15.40
2009,04,21,18,39,15.50
2009,04,21,18,40,15.50
2009,04,21,18,41,15.50
2009,04,21,18,42,15.50
2009,04,21,18,43,15.50
2009,04,21,18,44,15.50
2009,04,21,18,45,15.50
2009,04,21,18,46,15.60
2009,04,21,18,47,15.60
2009,04,21,18,48,15.60
2009,04,21,18,49,15.60
2009,04,21,18,50,15.60
2009,04,21,18,51,15.60
2009,04,21,18,52,15.60
2009,04,21,18,53,15.60
2009,04,21,18,54,15.60
2009,04,21,18,55,15.60
2009,04,21,18,56,15.50
2009,04,21,18,57,15.50
2009,04,21,18,58,15.50
2009,04,21,18,59,15.50
2009,04,21,19,00,15.40
2009,04,21,19,01,15.40
2009,04,21,19,02,15.40
2009,04,21,19,03,15.40
2009,04,21,19,04,15.30
2009,04,21,19,05,15.30
2009,04,21,19,06,15.30
2009,04,21,19,07,15.20
2009,04,21,19,08,15.20
2009,04,21,19,09,15.20
2009,04,21,19,10,15.20
2009,04,21,19,11,15.20
2009,04,21,19,12,15.20
2009,04,21,19,13,15.10
2009,04,21,19,14,15.10
2009,04,21,19,15,15.10
2009,04,21,19,16,15.00
2009,04,21,19,17,15.00
2009,04,21,19,18,15.00
2009,04,21,19,19,15.00
2009,04,21,19,20,15.00
2009,04,21,19,21,15.00
2009,04,21,19,22,15.00
2009,04,21,19,23,15.00
2009,04,21,19,24,15.00
2009,04,21,19,25,15.00
2009,04,21,19,26,15.00
2009,04,21,19,27,15.00
2009,04,21,19,28,15.00
2009,04,21,19,29,15.00
2009,04,21,19,30,15.00
2009,04,21,19,31,15.00
2009,04,21,19,32,15.00
2009,04,21,19,33,15.00
2009,04,21,19,34,15.00
2009,04,21,19,35,15.00
2009,04,21,19,36,14.90
2009,04,21,19,37,14.90
2009,04,21,19,38,14.80
2009,04,21,19,39,14.80
2009,04,21,19,40,14.80
2009,04,21,19,41,14.80
2009,04,21,19,42,14.80
2009,04,21,19,43,14.80
2009,04,21,19,44,14.80
2009,04,21,19,45,14.80
2009,04,21,19,46,14.80
2009,04,21,19,47,14.70
2009,04,21,19,48,14.70
2009,04,21,19,49,14.70
2009,04,21,19,50,14.70
2009,04,21,19,51,14.60
2009,04,21,19,52,14.60
2009,04,21,19,53,14.60
2009,04,21,19,54,14.60
2009,04,21,19,55,14.60
2009,04,21,19,56,14.50
2009,04,21,19,57,14.50
2009,04,21,19,58,14.50
2009,04,21,19,59,14.40
2009,04,21,20,00,14.40
2009,04,21,20,01,14.40
2009,04,21,20,02,14.40
2009,04,21,20,03,14.40
2009,04,21,20,04,14.40
2009,04,21,20,05,14.40
2009,04,21,20,06,14.30
2009,04,21,20,07,14.30
2009,04,21,20,08,14.30
2009,04,21,20,09,14.30
2009,04,21,20,10,14.30
2009,04,21,20,11,14.30
2009,04,21,20,12,14.30
2009,04,21,20,13,14.30
2009,04,21,20,14,14.30
2009,04,21,20,15,14.30
2009,04,21,20,16,14.30
2009,04,21,20,17,14.30
2009,04,21,20,18,14.20
2009,04,21,20,19,14.20
2009,04,21,20,20,14.20
2009,04,21,20,21,14.20
2009,04,21,20,22,14.20
2009,04,21,20,23,14.20
2009,04,21,20,24,14.20
2009,04,21,20,25,14.20
2009,04,21,20,26,14.20
2009,04,21,20,27,14.20
2009,04,21,20,28,14.20
2009,04,21,20,29,14.10
2009,04,21,20,30,14.10
2009,04,21,20,31,14.10
2009,04,21,20,32,14.10
2009,04,21,20,33,14.10
2009,04,21,20,34,14.10
2009,04,21,20,35,14.10
2009,04,21,20,36,14.10
2009,04,21,20,37,14.10
2009,04,21,20,38,14.00
2009,04,21,20,39,14.00
2009,04,21,20,40,14.00
2009,04,21,20,41,14.00
2009,04,21,20,42,14.00
2009,04,21,20,43,13.90
2009,04,21,20,44,13.90
2009,04,21,20,45,13.90
2009,04,21,20,46,13.90
2009,04,21,20,47,13.90
2009,04,21,20,48,13.90
2009,04,21,20,49,13.90
2009,04,21,20,50,13.80
2009,04,21,20,51,13.80
2009,04,21,20,52,13.80
2009,04,21,20,53,13.80
2009,04,21,20,54,13.80
2009,04,21,20,55,13.70
2009,04,21,20,56,13.70
2009,04,21,20,57,13.70
2009,04,21,20,58,13.70
2009,04,21,20,59,13.70
2009,04,21,21,00,13.60
2009,04,21,21,01,13.60
2009,04,21,21,02,13.60
2009,04,21,21,03,13.60
2009,04,21,21,04,13.60
2009,04,21,21,05,13.60
2009,04,21,21,06,13.50
2009,04,21,21,07,13.50
2009,04,21,21,08,13.50
2009,04,21,21,09,13.50
2009,04,21,21,10,13.50
2009,04,21,21,11,13.50
2009,04,21,21,12,13.40
2009,04,21,21,13,13.40
2009,04,21,21,14,13.40
2009,04,21,21,15,13.40
2009,04,21,21,16,13.40
2009,04,21,21,17,13.40
2009,04,21,21,18,13.40
2009,04,21,21,19,13.40
2009,04,21,21,20,13.40
2009,04,21,21,21,13.40
2009,04,21,21,22,13.40
2009,04,21,21,23,13.30
2009,04,21,21,24,13.30
2009,04,21,21,25,13.30
2009,04,21,21,26,13.30
2009,04,21,21,27,13.30
2009,04,21,21,28,13.30
2009,04,21,21,29,13.30
2009,04,21,21,30,13.30
2009,04,21,21,31,13.30
2009,04,21,21,32,13.30
2009,04,21,21,33,13.20
2009,04,21,21,34,13.20
2009,04,21,21,35,13.20
2009,04,21,21,36,13.20
2009,04,21,21,37,13.20
2009,04,21,21,38,13.10
2009,04,21,21,39,12.90
2009,04,21,21,40,12.70
2009,04,21,21,41,12.50
2009,04,21,21,42,12.30
2009,04,21,21,43,12.00
2009,04,21,21,44,11.70
2009,04,21,21,45,11.40
2009,04,21,21,46,11.20
2009,04,21,21,47,10.90
2009,04,21,21,48,10.70
2009,04,21,21,49,10.50
2009,04,21,21,50,10.30
2009,04,21,21,51,10.10
2009,04,21,21,52,10.00
2009,04,21,21,53,9.80
2009,04,21,21,54,9.70
2009,04,21,21,55,9.70
2009,04,21,21,56,9.60
2009,04,21,21,57,9.60
2009,04,21,21,58,9.50
2009,04,21,21,59,9.50
2009,04,21,22,00,9.40
2009,04,21,22,01,9.40
2009,04,21,22,02,9.30
2009,04,21,22,03,9.30
2009,04,21,22,04,9.20
2009,04,21,22,05,9.20
2009,04,21,22,06,9.10
2009,04,21,22,07,9.10
2009,04,21,22,08,9.10
2009,04,21,22,09,9.00
2009,04,21,22,10,8.90
2009,04,21,22,11,8.90
2009,04,21,22,12,8.80
2009,04,21,22,13,8.80
2009,04,21,22,14,8.70
2009,04,21,22,15,8.70
2009,04,21,22,16,8.60
2009,04,21,22,17,8.60
2009,04,21,22,18,8.50
2009,04,21,22,19,8.40
2009,04,21,22,20,8.40
2009,04,21,22,21,8.30
2009,04,21,22,22,8.30
2009,04,21,22,23,8.20
2009,04,21,22,24,8.20
2009,04,21,22,25,8.20
2009,04,21,22,26,8.10
2009,04,21,22,27,8.10
2009,04,21,22,28,8.10
2009,04,21,22,29,8.10
2009,04,21,22,30,8.00
2009,04,21,22,31,8.00
2009,04,21,22,32,8.00
2009,04,21,22,33,7.90
2009,04,21,22,34,7.90
2009,04,21,22,35,7.90
2009,04,21,22,36,7.90
2009,04,21,22,37,7.90
2009,04,21,22,38,7.90
2009,04,21,22,39,7.90
2009,04,21,22,40,7.90
2009,04,21,22,41,7.80
2009,04,21,22,42,7.80
2009,04,21,22,43,7.80
2009,04,21,22,44,7.80
2009,04,21,22,45,7.80
2009,04,21,22,46,7.80
2009,04,21,22,47,7.80
2009,04,21,22,48,7.80
2009,04,21,22,49,7.80
2009,04,21,22,50,7.80
2009,04,21,22,51,7.80
2009,04,21,22,52,7.70
2009,04,21,22,53,7.70
2009,04,21,22,54,7.70
2009,04,21,22,55,7.70
2009,04,21,22,56,7.70
2009,04,21,22,57,7.60
2009,04,21,22,58,7.60